www.pogodaiklimat.ru
Время
и дата
05:38 30.12
05:56 30.12
06:56 30.12
07:56 30.12
08:56 30.12
09:56 30.12
10:56 30.12
11:18 30.12
11:56 30.12
12:03 30.12
12:56 30.12
13:56 30.12
14:56 30.12
15:56 30.12
16:56 30.12
17:56 30.12
18:56 30.12
19:56 30.12
20:56 30.12
21:56 30.12
22:56 30.12
23:56 30.12
00:56 31.12
01:27 31.12
01:29 31.12
01:37 31.12
01:56 31.12
02:02 31.12
02:10 31.12
02:19 31.12
02:56 31.12
03:11 31.12
03:56 31.12
04:00 31.12
04:09 31.12
04:28 31.12
04:32 31.12
04:56 31.12
05:56 31.12
06:56 31.12
07:56 31.12
08:56 31.12
09:56 31.12
10:56 31.12
11:56 31.12
12:56 31.12
13:56 31.12
14:56 31.12
Ветер
(напр.,м/с)
Видим. Явления Облачность Т
(С)
Тd
(С)
f
(%)
Тe
(С)
Тes
(С)
Комфортность P
(гПа)
Po
(гПа)
Тmin
(С)
Tmax
(С)
R
(мм)
R24
(мм)
S
(см)
С 1 16 км 8/8 30 м -0.6 -1.7 92 -4 -4 991.1
штиль 0 16 км 8/8 30 м 0.0 -1.7 88 -1 -1 1014.1 991.8
штиль 0 16 км 10/10 990 м +0.6 -1.1 88 -1 -1 1014.3 991.8
штиль 0 16 км 10/5 960 м
[Ac]
+0.6 -0.6 92 -1 -1 1014.1 991.8
штиль 0 16 км 8/0 3600 м
[Ac]
+1.7 0.0 88 +1 +1 1014.7 992.1
штиль 0 16 км 10/10 960 м +3.3 +0.6 82 +2 +2 1014.9 992.5 -1.1 +3.3
штиль 0 16 км 10/10 900 м +5.0 +1.1 76 +4 +4 1014.3 991.8
штиль 0 16 км 10/10 870 м +5.6 +1.7 76 +5 +5 991.8
СЗ 1 16 км 10/10 870 м +6.1 +1.7 73 +4 +4 1013.7 991.5
С 1 16 км 10/10 900 м +6.1 +1.1 70 +4 +4 991.1
СЗ 1 16 км 10/10 960 м +7.2 +1.7 68 +5 +5 1012.8 990.5
С 1 16 км 10/10 1050 м +8.3 +1.7 63 +7 +7 1012.5 990.2
штиль 0 16 км 10/10 1020 м +8.3 +2.2 65 +8 +8 1012.6 990.2
СЗ 1 16 км 10/10 1020 м +8.9 +2.2 63 +7 +7 1012.1 989.8 +3.3 +9.4
З 1 16 км 2/2 1080 м +7.2 +1.7 68 +5 +5 1012.0 989.8
штиль 0 16 км ясно +5.0 +1.1 76 +4 +4 1012.2 989.8
штиль 0 16 км ясно +3.3 +0.6 82 +2 +2 1012.2 989.8
штиль 0 16 км ясно +2.8 +0.6 85 +2 +2 1012.5 990.2
штиль 0 16 км ясно +2.8 +0.6 85 +2 +2 1012.5 990.2
штиль 0 16 км ясно +2.2 0.0 85 +1 +1 1012.5 990.2 +1.1 +8.3
штиль 0 13 км ясно +1.7 0.0 88 +1 +1 1012.7 990.5
штиль 0 13 км ясно +1.1 -0.6 88 0 0 1012.8 990.5
штиль 0 11 км ясно +0.6 -1.1 88 -1 -1 1012.7 990.5
штиль 0 2 км дымка 2/2 60 м -0.6 -1.7 92 -2 -2 990.5
штиль 0 1 км дымка ?/? -0.6 -1.7 92 -2 -2 990.5
штиль 0 800 м переохлажденный туман ?/? -0.6 -1.7 92 -2 -2 990.5
штиль 0 1 км дымка ?/? -0.6 -2.2 89 -2 -2 1013.1 990.8
штиль 0 2 км дымка ?/? -0.6 -1.7 92 -2 -2 990.8
штиль 0 3 км дымка 5/5 30 м 0.0 -1.7 88 -1 -1 990.5
штиль 0 13 км 2/2 60 м 0.0 -1.7 88 -1 -1 990.8
штиль 0 13 км ясно 0.0 -1.7 88 -1 -1 1013.0 990.8
штиль 0 6 км дымка 2/2 30 м -1.1 -2.2 92 -2 -2 990.5
штиль 0 4 км дымка 5/5 30 м -1.7 -2.8 92 -3 -3 1012.3 990.2 -1.7 +2.2
штиль 0 2 км дымка 8/8 30 м -1.7 -2.8 92 -3 -3 990.2
штиль 0 800 м переохлажденный туман ?/? -1.1 -2.8 88 -2 -2 990.2
штиль 0 4 км дымка 8/8 30 м -1.1 -2.8 88 -2 -2 989.8
штиль 0 11 км 5/5 30 м -1.1 -2.8 88 -2 -2 989.8
штиль 0 14 км ясно -1.1 -2.8 88 -2 -2 1012.3 990.2
штиль 0 14 км ясно -1.7 -3.3 89 -3 -3 1012.7 990.2
штиль 0 16 км ясно -1.7 -3.3 89 -3 -3 1013.2 990.5
штиль 0 16 км ясно -1.1 -3.3 85 -2 -2 1013.4 990.8
штиль 0 11 км ясно +1.7 -0.6 85 +1 +1 1013.6 991.1
штиль 0 16 км ясно +5.0 +2.2 82 +4 +6 1014.1 991.8 -2.2 +5.0
С 2 16 км ясно +8.9 +1.1 58 +6 +7 1013.9 991.5
С 3 16 км 5/5 1290 м +10.0 0.0 50 +7 +8 1013.4 991.1
СЗ 2 16 км 10/10 1410 м +9.4 +0.6 54 +7 +7 1013.1 990.8
С 2 16 км 8/8 1260 м +10.0 +0.6 52 +7 +8 1012.6 990.2
СЗ 2 16 км 8/8 1230 м +11.1 +1.7 52 +9 +9 1012.8 990.5
Местоположение метеостанции Ukiah Municipal Airport: широта 39.1258 долгота -123.2008 высота над уровнем моря 187 м.
В архиве по умолчанию представлена погода в Юкайе за последние 1-2 суток. Обновление информации о фактической погоде в базе происходит ежечасно! Архивные данные за месяц целиком и за предыдущие месяцы Вы можете получить, выбрав интересующий диапазон дат из раскрывающегося списка и нажав кнопку "Ввод!".
Внимание! Архив погоды МЕТАР в базе сайта по станциям, не включенным в климатический монитор, хранится не более 60 дней. Нет смысла пытаться выбрать более раннюю дату.
*Определитесь, кто Вы:
Внимание! Время в таблицах - местное (без учета летнего времени). Для получения всемирного времени необходимо вычесть поправку, которая равна -8 ч.
Смотрите также архив погоды в соседних городах и на ближайших метеорологических станциях:
Партнеры нашего сайта:      
Пояснения к столбцам:
  • Ветер - указаны скорость ветра в м/с - средняя за 10 мин, порывы в срок и между сроками (в фигурных скобках) и направление, откуда дует ветер: С - северный,
  • СВ - северо-восточный, В - восточный, ЮВ - юго-восточный, Ю - южный, ЮЗ - юго-западный, З - западный, СЗ - северо-западный.
  • Видимость - горизонтальная дальность видимости в метрах или километрах. При видимости от 1 до 10 км при отсутствии осадков обычно наблюдается дымка, при ухудшении видимости до 1 км и менее - туман. В сухую погоду видимость может ухудшаться дымом, пылью или мглою.
  • Явления - указаны атмосферные явления, наблюдавшиеся в срок или в последний час перед сроком; фигурными скобками обозначены явления, наблюдавшиеся между сроками (за 1-3 часа до срока); квадратными скобками обозначены град или гололедные отложения с указанием их диаметра в мм.
  • Облачность - указаны через наклонную черту общая и нижняя облачность в баллах и высота нижней границы облаков в метрах; квадратными скобками обозначены формы облаков: Ci - перистые, Cs - перисто-слоистые, Cc - перисто-кучевые, Ac - высококучевые, As - высокослоистые, Sc - слоисто-кучевые, Ns - слоисто-дождевые, Cu - кучевые, Cb - кучево-дождевые. Подробнее классификацию облаков см. в Атласе облаков (PDF).
  • T - Температура воздуха - температура, измеренная на высоте 2 м над землей.
  • Td - Температура точки росы - температура, при понижении до которой содержащийся в воздухе водяной пар достигнет насыщения.
  • f - Относительная влажность воздуха - влажноcть воздуха, измеренная на высоте 2 м над землей.
  • Te - Эффективная температура - температура, которую ощущает одетый по сезону человек в тени. Характеристика душности погоды. При расчете учитывается влияние влажности воздуха и скорости ветра на теплоощущения человека.
  • Tes - Эффективная температура на солнце - температура, которую ощущает человек, с поправкой на солнечный нагрев. Характеристика знойности погоды. Зависит от высоты солнца над горизонтом, облачности и скорости ветра. Ночью, в пасмурную погоду, а также при ветре 12 м/с и более поправка равна нулю.
  • P - Атмосферное давление - приведенное к уровню моря атмосферное давление.
  • Po - Атмосферное давление - измеренное на уровне метеостанции атмосферное давление.
  • Tmin - Минимальная температура - минимум температуры воздуха на высоте 2 м над землей.
  • Tmax - Максимальная температура - максимум температуры воздуха на высоте 2 м над землей.
  • R - Количество осадков - Количество выпавших осадков за период времени, мм. При наведении курсора мыши на число - период времени, за который выпало указанное количество осадков.
  • R24 - Количество осадков - Количество выпавших осадков за 24 часа, мм.
  • S - Снежный покров - Высота снежного покрова, см. При наведении курсора мыши на число - состояние снежного покрова и степень покрытия местности в баллах.